Location: Carrières
(48.9495°N, 2.0407°E)
Time: 14:08:14
(UTC+00:00)

Cosmos 1844 - Pass Details

Date: 28 January 2023
Orbit: 821 x 868 km, 70.9° (Epoch: 21 March)

Event Time Altitude Azimuth Distance (km) Brightness Sun altitude
Rises 19:19:49 0° 332° (NNW) 3,464 7.3 -25.8°
Reaches altitude 10° 19:22:19 10° 335° (NNW) 2,524 6.5 -26.2°
Enters shadow 19:27:44 69° 29° (NNE) 931 3.7 -27.1°
